STARLINK-1494 (45760 NORAD) Tracking and Keplerian Element Data

This shows tracking and keplerian element data for the satellite.

Feedback or suggestion? Click here.




ElementValue
Catalog45760
NameSTARLINK-1494
Epoch Orbit444
Epoch Day186.50001157
Epoch Year2020
RAAN192.6987
Inclination53.0001
Eccentricity0.000163
Argument of Perigee76.0899
Mean Anonmoly132.0245
Mean Motion15.62751165
Decay Rate0.00048647
L11 45760U 20038AG 20186.50001157 .00048647 00000-0 53395-3 0 9998
L22 45760 53.0001 192.6987 0001630 76.0899 132.0245 15.62751165 4442

Live tracking and technical data element details for STARLINK-1494 (NORAD 45760). STARLINK-1494 can be tracked NOW for your location showing map with azimuth and elevation plus other details from your city location.

Track the satellite on the map from your city or location and see movement details for azimuth, elevation, latitude, longitude, range, height, and movement on the map or in text.







IsCatalogInMostPopularTable: catalog: 45760, numindb: 5
Update: records affected: 1



GetName: 45760 STARLINK-1494

Hit Count: updated at: Sun, 05 Jul 2020 16:45:18 GMT